Hourly Data Report for September 18, 2018

SHEARWATER RCS
NOVA SCOTIA
Current Station Operator: ECCC - MSC

44°37'47.000" N
63°30'48.000" W
24.00 m
8205092
71264
AAW

Download Data

Hourly Data (September 2018)
Hourly Data Report for September 18, 2018
TIME Temp Definition
°C
Dew Point Definition
°C
Rel Hum Definition
%
Wind Dir Definition
10's deg

Wind Spd Definition
km/h
Visibility Definition
km
Stn Press Definition
kPa
Hmdx Definition


Wind Chill Definition


Weather Definition


00:00 17.9 15.9 88 24 11   100.99     LegendNANA
01:00 17.7 15.7 88 23 10   100.92     LegendNANA
02:00 17.4 15.6 89 22 10   100.87     LegendNANA
03:00 17.6 16.0 90 23 10   100.80     LegendNANA
04:00 17.9 16.3 90 24 10   100.76     LegendNANA
05:00 18.0 16.3 90 23 8   100.72     LegendNANA
06:00 18.1 16.3 89 25 12   100.70     LegendNANA
07:00 18.7 16.7 88 26 9   100.70     LegendNANA
08:00 20.0 17.1 84 25 13   100.66 25   LegendNANA
09:00 20.8 17.5 81 25 12   100.63 26   LegendNANA
10:00 22.9 18.3 76 25 10   100.63 29   LegendNANA
11:00 24.6 17.9 66 24 15   100.57 31   LegendNANA
12:00 26.1 18.1 61 26 11   100.53 32   LegendNANA
13:00 25.1 18.6 67 24 14   100.52 32   LegendNANA
14:00 23.9 18.8 73 22 16   100.49 31   LegendNANA
15:00 22.9 18.7 77 22 14   100.48 29   LegendNANA
16:00 22.4 18.5 79 22 17   100.47 29   LegendNANA
17:00 20.9 18.7 87 22 11   100.46 27   LegendNANA
18:00 20.2 18.7 91 25 6   100.49 27   LegendNANA
19:00 19.9 18.6 92 18 5   100.51     LegendNANA
20:00 19.3 18.0 92 7 9   100.49     LegendNANA
21:00 19.0 18.0 94 5 10   100.41     LegendNANA
22:00 18.7 17.5 93 1 11   100.44     LegendNANA
23:00 16.0 14.8 93 3 23   100.45     LegendNANA

Notes on Data Quality.

Legend

  • E = Estimated
  • M = Missing
  • NA = Not Available*
  • [empty] = Indicates an unobserved value
Date modified: